DW6513 Weather Reports


time (UTC)temp
F
wind
direction
speed
knots
gust
knots
rain 1hr
in
rain 24hr
in
rain mn
in
humidity
%
barometer
mb
20260509191803 83 100 5.2 12.2 0.00 0.19 0.00 37 1008.4
20260509191303 82 338 5.2 14.8 0.00 0.19 0.00 40 1008.4
20260509190803 82 145 4.3 12.2 0.00 0.19 0.00 40 1008.5
20260509190304 81 292 4.3 7.0 0.00 0.19 0.00 40 1008.5
20260509185804 81 303 4.3 7.0 0.00 0.19 0.00 40 1008.5
20260509185306 81 115 5.2 7.0 0.00 0.19 0.00 41 1008.5
20260509183803 80 145 6.1 13.9 0.00 0.19 0.00 42 1008.6
20260509183303 80 325 7.8 7.8 0.00 0.19 0.00 43 1008.6
20260509182803 80 280 7.0 15.6 0.00 0.19 0.00 43 1008.6
20260509182306 80 145 5.2 19.1 0.00 0.19 0.00 42 1008.6
20260509181303 79 138 7.0 18.2 0.00 0.19 0.00 45 1008.6
20260509180303 77 325 6.1 14.8 0.00 0.19 0.00 48 1008.7
20260509175803 77 100 7.0 14.8 0.00 0.19 0.00 48 1008.7
20260509175306 76 139 6.1 12.2 0.00 0.19 0.00 52 1008.7
20260509174304 75 335 6.1 15.6 0.00 0.19 0.00 52 1008.9
20260509173804 74 347 6.1 15.6 0.00 0.19 0.00 52 1008.9
20260509172803 74 167 5.2 11.3 0.00 0.19 0.00 55 1009.0
20260509172306 73 140 5.2 14.8 0.00 0.19 0.00 55 1009.0
20260509171803 73 303 7.0 14.8 0.00 0.19 0.00 55 1009.0
20260509171304 72 145 7.0 17.4 0.00 0.19 0.00 58 1009.0
20260509170804 72 145 6.1 17.4 0.00 0.19 0.00 58 1009.5
20260509165803 72 167 6.1 10.4 0.00 0.19 0.00 60 1009.5
20260509165306 71 127 5.2 13.0 0.00 0.19 0.00 59 1009.5
20260509164304 70 149 4.3 10.4 0.00 0.19 0.00 63 1009.4
20260509163803 70 347 4.3 10.4 0.00 0.19 0.00 64 1009.4
20260509162803 69 332 5.2 7.8 0.00 0.19 0.00 65 1009.5
20260509162307 69 138 5.2 12.2 0.00 0.19 0.00 66 1009.5
20260509161804 69 123 4.3 7.0 0.00 0.19 0.00 67 1010.0
20260509161303 68 157 4.3 7.8 0.00 0.19 0.00 68 1010.0
20260509160804 68 123 4.3 6.1 0.00 0.19 0.00 68 1009.9
20260509160303 68 121 2.6 8.7 0.00 0.19 0.00 70 1009.9
20260509155804 67 325 2.6 8.7 0.00 0.19 0.00 73 1009.9
20260509155306 67 190 4.3 8.7 0.00 0.19 0.00 75 1009.9
20260509154803 66 10 4.3 12.2 0.00 0.19 0.00 74 1010.0
20260509154303 66 155 4.3 12.2 0.00 0.19 0.00 76 1010.0
20260509153803 65 145 4.3 7.8 0.00 0.19 0.00 77 1010.0
20260509153303 65 145 4.3 6.1 0.00 0.19 0.00 77 1010.0
20260509152803 65 145 2.6 8.7 0.00 0.19 0.00 79 1010.1
20260509152306 64 197 4.3 8.7 0.00 0.19 0.00 79 1010.1
20260509151804 64 167 5.2 10.4 0.00 0.19 0.00 80 1010.1
20260509151303 64 145 5.2 10.4 0.00 0.19 0.00 81 1010.1
20260509150804 63 145 5.2 7.0 0.00 0.19 0.00 82 1010.0
20260509150304 63 145 2.6 7.0 0.00 0.19 0.00 83 1010.0
20260509145803 63 145 2.6 7.0 0.00 0.19 0.00 84 1010.0
20260509145306 63 181 2.6 7.8 0.00 0.19 0.00 84 1010.0
20260509144803 63 145 2.6 4.3 0.00 0.19 0.00 84 1009.9
20260509144303 62 234 4.3 4.3 0.00 0.19 0.00 84 1009.9
20260509143803 62 303 4.3 5.2 0.00 0.19 0.00 85 1009.9
20260509143304 62 145 4.3 5.2 0.00 0.19 0.00 86 1009.9
20260509142804 61 145 4.3 7.0 0.00 0.19 0.00 86 1009.7
20260509141803 61 123 4.3 7.0 0.00 0.19 0.00 88 1009.7
20260509141303 61 145 2.6 5.2 0.00 0.19 0.00 88 1009.7
20260509140804 61 145 1.7 6.1 0.00 0.19 0.00 88 1009.6
20260509140303 60 219 1.7 5.2 0.00 0.19 0.00 88 1009.6
20260509135804 60 145 1.7 4.3 0.00 0.19 0.00 89 1009.6
20260509135306 60 229 1.7 6.1 0.00 0.19 0.00 89 1009.6
20260509134803 59 123 1.7 2.6 0.00 0.19 0.00 89 1009.5
20260509133804 59 123 2.6 7.0 0.00 0.19 0.00 89 1009.5
20260509133304 59 173 2.6 7.0 0.00 0.19 0.00 90 1009.5
20260509132306 59 177 2.6 7.0 0.00 0.19 0.00 90 1009.8
20260509131804 59 100 4.3 2.6 0.00 0.19 0.00 91 1009.8
20260509130803 59 167 2.6 5.2 0.00 0.19 0.00 91 1009.9
20260509130304 58 93 1.7 8.7 0.00 0.19 0.00 91 1009.9
20260509125803 58 77 1.7 7.0 0.00 0.19 0.00 92 1009.9
20260509125307 59 167 2.6 7.0 0.00 0.19 0.00 92 1009.9
20260509124804 58 145 1.7 7.8 0.00 0.19 0.00 93 1009.8
20260509124303 58 145 0.9 2.6 0.00 0.19 0.00 93 1009.8
20260509122804 58 145 1.7 7.0 0.00 0.19 0.00 94 1009.4
20260509122306 58 166 1.7 7.0 0.00 0.19 0.00 94 1009.4
20260509121803 58 235 1.7 7.0 0.00 0.19 0.00 94 1009.4
20260509121304 58 121 2.6 5.2 0.00 0.19 0.00 95 1009.4
20260509120803 58 145 2.6 6.1 0.00 0.19 0.00 95 1009.7
20260509115804 58 145 1.7 4.3 0.00 0.19 0.00 95 1009.7
20260509115306 57 208 1.7 5.2 0.00 0.19 0.00 95 1009.7
20260509114803 57 10 0.9 4.3 0.00 0.19 0.00 95 1009.3
20260509113803 57 190 0.0 0.0 0.00 0.19 0.00 95 1009.3
20260509113304 57 133 0.9 1.7 0.00 0.19 0.00 96 1009.3
20260509112804 57 167 0.0 1.7 0.00 0.19 0.00 96 1009.4
20260509112306 57 145 0.9 1.7 0.00 0.19 0.00 96 1009.4
20260509111804 57 347 0.9 1.7 0.00 0.19 0.00 96 1009.4
20260509111303 57 123 1.7 4.3 0.00 0.19 0.00 96 1009.4
20260509110804 57 145 1.7 5.2 0.00 0.19 0.00 96 1009.7
20260509105804 57 145 2.6 7.0 0.00 0.19 0.00 97 1009.7
20260509105306 57 145 3.5 7.0 0.00 0.19 0.00 96 1009.7
20260509104304 57 126 1.7 7.8 0.00 0.19 0.00 96 1009.1
20260509103804 57 190 1.7 6.1 0.00 0.19 0.00 96 1009.1
20260509103304 57 145 1.7 5.2 0.00 0.19 0.00 96 1009.1
20260509102803 57 167 0.9 2.6 0.00 0.19 0.00 96 1009.0
20260509102306 57 117 1.7 2.6 0.00 0.19 0.00 96 1009.0
20260509101804 57 257 1.7 7.0 0.00 0.19 0.00 96 1009.0
20260509101304 57 145 1.7 7.0 0.00 0.19 0.00 96 1009.0
20260509100804 57 190 0.9 4.3 0.00 0.19 0.00 96 1009.0
20260509095803 57 145 0.9 4.3 0.00 0.19 0.00 96 1009.0
20260509095306 57 133 0.9 5.2 0.00 0.19 0.00 96 1009.0
20260509094803 57 145 0.9 5.2 0.00 0.19 0.00 96 1008.8
20260509094303 57 158 1.7 4.3 0.00 0.19 0.00 96 1008.8
20260509093803 57 145 0.9 5.2 0.00 0.19 0.00 96 1008.8
20260509093303 57 145 0.9 4.3 0.00 0.19 0.00 96 1008.8
20260509092804 57 145 1.7 0.0 0.00 0.19 0.00 96 1008.5
20260509092305 57 172 1.7 6.1 0.00 0.19 0.00 96 1008.5
20260509091804 57 190 0.9 2.6 0.00 0.19 0.00 96 1008.5
20260509091304 57 123 0.0 1.7 0.00 0.19 0.00 96 1008.5
20260509090803 57 145 0.9 1.7 0.00 0.19 0.00 96 1008.7
20260509090304 57 145 0.9 2.6 0.00 0.19 0.00 96 1008.7
20260509085804 57 145 0.0 0.0 0.00 0.19 0.00 96 1008.7
20260509085306 57 125 0.9 0.0 0.00 0.19 0.00 96 1008.7
20260509084804 57 145 0.9 0.0 0.00 0.19 0.00 96 1008.6
20260509084304 57 157 0.9 2.6 0.00 0.19 0.00 96 1008.6
20260509083803 57 123 0.9 1.7 0.00 0.19 0.00 96 1008.6
20260509082804 57 145 0.9 0.0 0.00 0.19 0.00 96 1008.7
20260509081803 57 145 1.7 0.0 0.00 0.19 0.00 96 1008.7
20260509081304 57 145 2.6 4.3 0.00 0.19 0.00 96 1008.7
20260509080804 57 145 2.6 4.3 0.00 0.19 0.00 96 1008.5
20260509080303 57 145 1.7 4.3 0.00 0.19 0.00 96 1008.5
20260509075306 57 138 0.9 5.2 0.00 0.19 0.00 96 1008.5
20260509074804 57 145 0.9 5.2 0.00 0.19 0.00 96 1008.5
20260509074303 57 167 0.9 2.6 0.00 0.19 0.00 96 1008.5
20260509073804 57 145 0.9 4.3 0.00 0.19 0.00 96 1008.5
20260509073304 57 145 0.0 4.3 0.00 0.19 0.00 96 1008.5
20260509072804 57 145 0.0 0.0 0.00 0.19 0.00 96 1008.7
20260509072306 57 145 0.0 0.0 0.00 0.19 0.00 95 1008.7
20260509071804 57 280 0.0 0.0 0.00 0.19 0.00 95 1008.7
20260509071304 57 145 0.0 0.0 0.00 0.19 0.00 95 1008.7
20260509070803 57 145 0.0 0.0 0.00 0.19 0.00 95 1008.7
20260509070304 57 135 0.0 0.0 0.00 0.19 0.00 95 1008.7
20260509065804 57 123 0.0 0.0 0.00 0.19 0.00 94 1008.7
20260509065306 57 123 0.0 0.0 0.00 0.19 0.00 94 1008.7
20260509064804 57 123 0.0 0.0 0.00 0.19 0.00 94 1008.5
20260509064304 57 123 0.0 0.0 0.00 0.19 0.00 94 1008.5
20260509063804 57 123 0.0 0.0 0.00 0.19 0.00 94 1008.5
20260509063304 57 123 0.0 0.0 0.00 0.19 0.00 94 1008.5
20260509062804 58 123 0.0 0.0 0.00 0.19 0.00 94 1008.3
20260509062306 58 123 0.0 0.0 0.00 0.19 0.00 94 1008.3
20260509061804 58 190 0.0 0.0 0.00 0.19 0.00 94 1008.3
20260509061304 58 190 0.0 0.0 0.00 0.19 0.00 94 1008.3
20260509060804 58 190 0.0 0.0 0.00 0.19 0.00 94 1008.8
20260509060304 58 235 0.0 0.0 0.00 0.19 0.00 94 1008.8
20260509055804 58 190 0.0 0.0 0.00 0.19 0.00 94 1008.8
20260509055306 58 167 0.0 0.0 0.00 0.19 0.00 94 1008.8
20260509054802 58 167 0.0 0.0 0.00 0.19 0.00 94 1008.6
20260509053302 58 143 0.0 0.0 0.00 0.19 0.00 94 1008.6
20260509052802 58 190 0.0 0.0 0.00 0.19 0.00 94 1008.4
20260509052306 58 118 0.0 0.0 0.00 0.19 0.00 94 1008.4
20260509051802 58 145 0.0 0.0 0.00 0.19 0.00 94 1008.4
20260509051302 58 106 0.0 0.0 0.00 0.19 0.00 94 1008.4
20260509050820 58 145 0.0 0.0 0.00 0.19 0.00 93 1008.9
20260509050302 59 182 0.0 0.0 0.00 0.19 0.00 93 1008.9
20260509045802 59 145 0.0 0.0 0.00 0.19 0.19 94 1008.9
20260509045306 59 125 0.0 4.3 0.00 0.19 0.19 94 1008.9
20260509044803 59 145 0.0 0.0 0.00 0.19 0.19 93 1008.9
20260509044302 59 145 0.0 1.7 0.00 0.19 0.19 93 1008.9
20260509043802 59 213 0.0 1.7 0.00 0.19 0.19 94 1008.9
20260509043302 59 135 0.0 0.0 0.03 0.19 0.19 94 1008.9
20260509042802 59 167 0.0 2.6 0.03 0.19 0.19 93 1009.5
20260509042306 59 77 0.0 0.0 0.06 0.19 0.19 93 1009.5
20260509041803 59 33 0.0 0.0 0.10 0.19 0.19 93 1009.5
20260509041302 59 282 0.0 0.0 0.10 0.19 0.19 92 1009.5
20260509040803 59 145 0.0 1.7 0.10 0.19 0.19 92 1009.7
20260509040302 59 167 0.0 1.7 0.10 0.19 0.19 92 1009.7
20260509035802 59 145 0.0 1.7 0.10 0.19 0.19 92 1009.7
20260509035305 59 350 0.0 0.0 0.13 0.19 0.19 90 1009.7
20260509034803 59 145 0.0 0.0 0.16 0.19 0.19 90 1009.9
20260509034303 59 123 0.0 0.0 0.19 0.19 0.19 90 1009.9
20260509033803 60 145 0.0 0.0 0.19 0.19 0.19 90 1009.9
20260509033302 60 167 0.0 2.6 0.16 0.16 0.16 90 1009.9
20260509032306 60 169 0.0 0.0 0.13 0.13 0.13 89 1010.3
20260509031803 60 123 0.0 0.0 0.10 0.10 0.10 89 1010.3
20260509030802 60 123 0.0 0.0 0.10 0.10 0.10 88 1010.4
20260509030302 60 182 0.0 0.0 0.10 0.10 0.10 88 1010.4
20260509025802 60 145 0.0 0.0 0.10 0.10 0.10 87 1010.4
20260509025306 60 145 0.0 2.6 0.06 0.06 0.06 85 1010.4
20260509024802 60 303 0.0 0.0 0.03 0.03 0.03 83 1009.9
20260509024302 61 303 0.0 0.0 0.00 0.00 0.00 83 1009.9
20260509023803 61 167 0.0 1.7 0.00 0.00 0.00 82 1009.9
20260509022802 61 167 0.0 0.0 0.00 0.00 0.00 80 1009.7
20260509022306 61 160 0.0 1.7 0.00 0.00 0.00 80 1009.7
20260509021802 62 280 0.0 0.0 0.00 0.00 0.00 79 1009.7
20260509021302 61 123 0.0 0.0 0.00 0.00 0.00 78 1009.7
20260509020802 61 145 0.0 0.0 0.00 0.00 0.00 78 1008.6
20260509020302 61 156 0.0 0.0 0.00 0.00 0.00 77 1008.6
20260509014802 61 280 0.0 2.6 0.00 0.00 0.00 76 1008.5
20260509014302 62 324 0.0 0.0 0.00 0.00 0.00 76 1008.5
20260509013803 62 303 0.0 0.0 0.00 0.00 0.00 76 1008.5
20260509013302 62 303 0.0 0.0 0.00 0.00 0.00 76 1008.5
20260509012803 62 303 0.0 0.0 0.00 0.00 0.00 75 1008.5
20260509012302 62 82 0.0 2.6 0.00 0.00 0.00 75 1008.5
20260509011803 62 347 0.0 2.6 0.00 0.00 0.00 73 1008.5
20260509011302 63 278 0.9 1.7 0.00 0.00 0.00 73 1008.5
20260509010802 63 303 0.9 2.6 0.00 0.00 0.00 70 1008.2
20260509010303 64 227 1.7 6.1 0.00 0.00 0.00 68 1008.2
20260509005306 65 323 0.9 4.3 0.00 0.00 0.00 66 1008.2
20260509004303 66 303 2.6 6.1 0.00 0.00 0.00 63 1008.1
20260509003803 67 33 4.3 7.0 0.00 0.00 0.00 60 1008.1
20260509003302 67 325 4.3 7.0 0.00 0.00 0.00 59 1008.1
20260509002802 68 10 4.3 7.0 0.00 0.00 0.00 56 1007.9
20260509002305 68 50 4.3 8.7 0.00 0.00 0.00 55 1007.9
20260509001803 69 303 1.7 7.8 0.00 0.00 0.00 54 1007.9
20260509001303 69 347 1.7 7.8 0.00 0.00 0.00 53 1007.9
20260509000803 70 347 1.7 4.3 0.00 0.00 0.00 53 1007.7
20260508235803 70 257 2.6 7.0 0.00 0.00 0.00 52 1007.7
20260508235306 71 332 1.7 7.0 0.00 0.00 0.00 52 1007.7
20260508234802 71 347 1.7 2.6 0.00 0.00 0.00 49 1008.0
20260508234302 71 283 2.6 5.2 0.00 0.00 0.00 49 1008.0
20260508233802 72 257 2.6 5.2 0.00 0.00 0.00 48 1008.0
20260508233303 72 351 2.6 5.2 0.00 0.00 0.00 47 1008.0
20260508232803 73 303 1.7 6.1 0.00 0.00 0.00 47 1007.8
20260508232306 73 319 1.7 6.1 0.00 0.00 0.00 46 1007.8
20260508231802 73 145 1.7 4.3 0.00 0.00 0.00 45 1007.8
20260508231303 73 359 1.7 7.0 0.00 0.00 0.00 44 1007.8
20260508230803 73 347 1.7 7.0 0.00 0.00 0.00 43 1007.5
20260508230302 74 247 2.6 7.0 0.00 0.00 0.00 42 1007.5
20260508225802 75 347 2.6 4.3 0.00 0.00 0.00 41 1007.5
20260508225306 76 18 1.7 5.2 0.00 0.00 0.00 40 1007.5
20260508224802 76 55 1.7 7.8 0.00 0.00 0.00 39 1007.7
20260508223802 76 280 1.7 4.3 0.00 0.00 0.00 39 1007.7
20260508222802 77 190 2.6 4.3 0.00 0.00 0.00 38 1007.3
20260508221303 81 145 4.3 11.3 0.00 0.00 0.00 36 1007.3
20260508220803 80 123 5.2 7.8 0.00 0.00 0.00 36 1007.5
20260508215803 77 33 4.3 7.0 0.00 0.00 0.00 37 1007.5
20260508215306 79 69 4.3 8.7 0.00 0.00 0.00 36 1007.5
20260508214803 81 123 4.3 19.1 0.00 0.00 0.00 35 1007.7
20260508214303 81 86 4.3 13.0 0.00 0.00 0.00 36 1007.7
20260508213802 81 347 4.3 2.6 0.00 0.00 0.00 35 1007.7
20260508213303 80 275 4.3 11.3 0.00 0.00 0.00 36 1007.7
20260508212803 79 347 4.3 7.0 0.00 0.00 0.00 37 1008.4
20260508212306 78 190 4.3 8.7 0.00 0.00 0.00 39 1008.4
20260508211803 78 325 2.6 7.0 0.00 0.00 0.00 39 1008.4
20260508211303 76 43 4.3 11.3 0.00 0.00 0.00 39 1008.4
20260508210803 76 347 4.3 5.2 0.00 0.00 0.00 37 1008.0
20260508210302 77 261 6.1 12.2 0.00 0.00 0.00 37 1008.0
20260508205803 78 167 6.1 12.2 0.00 0.00 0.00 36 1008.0
20260508205306 80 303 5.2 10.4 0.00 0.00 0.00 37 1008.0
20260508204803 80 325 4.3 13.0 0.00 0.00 0.00 39 1008.4
20260508204302 80 145 4.3 13.0 0.00 0.00 0.00 38 1008.4
20260508203303 80 138 5.2 18.2 0.00 0.00 0.00 39 1008.4
20260508202803 80 190 4.3 4.3 0.00 0.00 0.00 41 1008.8
20260508202306 78 135 5.2 11.3 0.00 0.00 0.00 40 1008.8
20260508201802 78 145 4.3 7.0 0.00 0.00 0.00 41 1008.8
20260508201303 79 347 2.6 7.0 0.00 0.00 0.00 40 1008.8
20260508200802 78 213 5.2 6.1 0.00 0.00 0.00 41 1008.9
20260508195802 78 145 4.3 13.0 0.00 0.00 0.00 40 1008.9
20260508195305 77 221 5.2 10.4 0.00 0.00 0.00 42 1008.9
20260508194803 79 347 5.2 12.2 0.00 0.00 0.00 40 1009.0
20260508194303 80 100 4.3 7.0 0.00 0.00 0.00 41 1009.0
20260508193803 79 167 5.2 7.0 0.00 0.00 0.00 43 1009.0
20260508193303 77 199 5.2 11.3 0.00 0.00 0.00 42 1009.0
20260508192803 77 145 4.3 10.4 0.00 0.00 0.00 43 1009.3